Regional Weather Roundup
Issued by NWS Goodland, KS

Home | Current Version | Previous Version | Text Only | Print | Product List | Glossary Off
Versions: 1 2 3 4 5 6 7 8 9 10 11 12 13 14 15 16 17 18 19 20 21 22 23 24 25 26 27 28 29 30 31 32 33 34 35 36 37 38 39 40 41 42 43 44 45 46 47 48 49 50

000
ASUS43 KGLD 250208
RWRGLD

GOODLAND FORECAST AREA HOURLY WEATHER ROUNDUP
NATIONAL WEATHER SERVICE GOODLAND KS
700 PM MST FRI NOV 24 2017

...OFFICIAL OBSERVATIONS...

CITY           SKY/WX    TMP DP  RH WIND       PRES   REMARKS
GOODLAND KS    PTCLDY    44  33  65 NW3       29.99R
HILL CITY KS   CLOUDY    57  38  48 N9        29.97R
IMPERIAL NEB   CLEAR     46  31  55 CALM      30.00R
MCCOOK NEB     CLOUDY    47  34  60 N6        29.96R
AKRON CO       CLOUDY    41  31  67 N7        30.02R
BURLINGTON CO  MOCLDY    50  35  56 N7        30.01R
LIMON CO       CLOUDY    44  33  65 CALM      30.04R
$$

...UNOFFICIAL OBSERVATIONS...

CITY           SKY/WX    TMP DP  RH WIND       PRES   REMARKS
COLBY KS       CLOUDY    46  36  66 W3        30.01R
LENORA KS        N/A     55  32  41 NE5         N/A
NORTON KS      MOCLDY    54  30  40 N7        29.94
SHARON SPRINGS   N/A     51  37  58 N12         N/A
KIT CARSON CO    N/A     54  35  49 MISG        N/A
YUMA CO        FAIR      45  30  57 N8        30.00R
$$



USA.gov is the U.S. government's official web portal to all federal, state and local government web resources and services.